Tracking 32938 objects as of 14-Jan-2026
HD Live streaming from Space Station
objects crossing your sky now

HIMAWARI 3 AKM

Track HIMAWARI 3 AKM now!


NORAD ID: 22266
Int'l Code: 1984-080E
Perigee: 35,375.9 km
Apogee: 36,503.9 km
Inclination: 9.8 °
Period: 1,443.6 minutes
Semi major axis: 42310 km
RCS: 0.4466 m2 (medium)
Launch date: August 2, 1984
Source: Japan (JPN)
Launch site: TANEGASHIMA SPACE CENTER (TNSTA)

Note: This is a ROCKET BODY
Your satellite tracking list
Your tracking list is empty




NASA's NSSDC Master Catalog

Two Line Element Set (TLE):
1 22266U 84080E   26013.25819050 -.00000385  00000-0  00000+0 0  9996
2 22266   9.7866 317.1248 0133299 107.6856 268.9052  0.99752667115945
Source of the keplerian elements: AFSPC